Location: DARK SKY Beskydy - Park tmavé oblohy, www.darkskybeskydy.cz
(49.4926°N, 18.5016°E)
Time: 04:08:57
(UTC+02:00)

A-11 Canister half - Pass Details

Date: 29 February 2024
Orbit: 1513 x 1686 km, 47.2° (Epoch: 24 April)

Event Time Altitude Azimuth Distance (km) Brightness Sun altitude
Rises 04:02:25 0° 272° (W) 4,937 - -24.6°
Reaches altitude 10° 04:05:36 10° 271° (W) 3,940 - -24.1°
Exits shadow 04:10:40 35° 267° (W) 2,469 9.5 -23.3°
Maximum altitude 04:15:43 78° 188° (S) 1,684 9.0 -22.5°
Drops below altitude 10° 04:25:30 10° 105° (ESE) 3,823 12.0 -20.9°
Sets 04:28:33 0° 104° (ESE) 4,785 12.7 -20.4°
